sat.trackr.live / text

‹ back to catalog

STARLINK-31388

NORAD 59565 · 2024-076B

PAYLOAD ACTIVE UNKNOWN

§ Identity

Operator
Country
US
Launch date
2024-04-23
Launch site
AFETR
Launch vehicle
Mass (kg)
RCS (m²)

Purposes: comms

External: N2YO · Heavens-Above · Gunter

§ Orbital elements

Epoch: 2026-05-24T21:18:07.383744Z

Period
94.27 min
Inclination
43.0034°
Eccentricity
0.0001986
Mean motion
15.27587283 rev/d
Perigee alt
481.7 km
Apogee alt
484.4 km
Semi-major
6,861.2 km
B*
-1.1586e-5
RAAN
298.9103°
Arg perigee
274.0424°
Mean anomaly
86.0201°
Rev number
11,815

§ Raw data

STARLINK-313881 59565U 24076B   26144.88758546 -.00000581  00000+0 -11586-4 0  99972 59565  43.0034 298.9103 0001986 274.0424  86.0201 15.27587283118156

JSON: /api/v1/satellites/59565 · /tle

For live sub-satellite position, see the globe view (requires WebGL).

§ Visibility from observer

Set your observer location to see the next 7 days of passes ≥ 10°. The values pass through the URL so the page stays shareable.

No JS? Fill the form by hand. The geolocation button needs JavaScript.